Preview of NWS' New Version of Forecast
This preview is not operational and should not be used for support decisions.

Regional Weather Roundup (RWR)

Issued by National Weather Service (NWS)

                            
000
ASUS42 KTBW 211017
RWRFL 
FLORIDA REGIONAL WEATHER ROUNDUP
NATIONAL WEATHER SERVICE TAMPA BAY RUSKIN FL
600 AM EDT SAT SEP 21 2019

NOTE: "FAIR" INDICATES FEW OR NO CLOUDS BELOW 12,000 FEET WITH NO
SIGNIFICANT WEATHER AND/OR OBSTRUCTIONS TO VISIBILITY.

FLZ001>010-012>015-112-114-115-211100-
PANHANDLE FLORIDA
  
CITY           SKY/WX    TMP DP  RH WIND       PRES   REMARKS
PENSACOLA      FAIR      75  69  81 E7        30.15R                  
PENSACOLA NAS  FAIR      77  72  84 E10       30.13R                  
MILTON NAS     FAIR      68  63  84 E7        30.17R                  
CRESTVIEW      FAIR      63  60  90 CALM      30.20R                  
DUKE FIELD     FAIR      69  64  84 E5        30.18R                  
VALPARAISO     FAIR      73  65  74 E8        30.16R                  
MARY ESTHER    PTCLDY    71  66  82 NE6       30.14R                  
PANAMA CITY    FAIR      71  65  81 NE8       30.16R                  
TYNDALL AFB    FAIR      71  66  85 NE9       30.16R                  
APALACHICOLA   FAIR      72  67  84 NE9       30.15R                  

STATION/POSITION SKY/WX   TEMP    WIND        PRES    WAVE   SWELL
                          AIR SEA DIR/SP/G            HT/PER HT/PER
                          (F)     (DEG/KT/KT) (MB)    (FT/S) (FT/S)
30.1N   87.6W              83 84  100/ 19/ 23 1019.9R   5/ 7   3/ 7
29.2N   88.2W              84     110/ 16/ 19 1019.1R
28.8N   86.0W                 85  110/ 19/ 25 1019.3R   7/ 7
PANAMA CITY BEAC           74 83  100/  7/ 11 1021.8R
TOWER C                    78      90/ 23/ 25 1020.9R
28.5N   84.5W              81      90/ 19/ 23 1020.1R   8/ 7

$$
FLZ011-016>038-118-127-128-134-139-239-211100-
NORTH FLORIDA
  
CITY           SKY/WX    TMP DP  RH WIND       PRES   REMARKS
MARIANNA       FAIR      67  66  97 NE6       30.19R                  
TALLAHASSEE    FAIR      71  68  90 E8        30.18S                  
PERRY          CLOUDY    69  69  97 CALM      30.20R                  
LIVE OAK       MOCLDY    68  68 100 CALM      30.19R                  
CROSS CITY       N/A     68  67  97 N3        30.17R                  
LAKE CITY      FAIR      66  64  94 NE5       30.19R                  
GAINESVILLE    FAIR      70  67  90 NE7       30.19R                  
WILLISTON      FAIR      68  67  96 NE5       30.16R                  
PALATKA        MOCLDY    63  63 100 CALM      30.17S                  
MAYPORT NAS    MOCLDY    79  66  64 E17       30.18R                  
JACKSONVILLE   FAIR      67  64  90 N3        30.18R                  
JAX NAS        MOCLDY    75  65  70 NE6       30.18R                  
JAX CECIL      CLOUDY    66  64  94 CALM      30.18R                  
FERNANDINA BEA CLOUDY    78  65  64 E14       30.19R                  
ST AUGUSTINE   MOCLDY   N/A N/A N/A E17       30.17S                  
PALM COAST     PTCLDY    77  64  65 E10       30.16R                  

STATION/POSITION SKY/WX   TEMP    WIND        PRES    WAVE   SWELL
                          AIR SEA DIR/SP/G            HT/PER HT/PER
                          (F)     (DEG/KT/KT) (MB)    (FT/S) (FT/S)
SHELL POINT      NOT AVBL
KEATON BEACH               69      40/  5/  7 1022.1R
CEDAR KEY                  71      40/  7/  9 1021.2R
FERNANDINA                    81   70/  1/  8 1023.0R
30.7N   81.3W                 81                N/A     5/ 7   2/14
MAYPORT                    79 81   80/ 13/ 17 1022.2R
31.4N   80.9W              80 81   80/ 16/ 19 1022.7R   5/ 6   3/ 8
ST AUGUSTINE               80 80   70/ 15/ 17 1021.6R

$$
FLZ040-043>046-052-053-057-058-063-144-211100-
INTERIOR CENTRAL FLORIDA
  
CITY           SKY/WX    TMP DP  RH WIND       PRES   REMARKS
OCALA          FAIR      69  67  93 NE5       30.15S                  
LEESBURG       FAIR      71  64  78 NE8       30.15R                  
SANFORD        FAIR      70  63  78 NE5       30.13S                  
ORLANDO EXEC   FAIR      72  65  78 NE5       30.13R                  
ORLANDO INTL   FAIR      71  64  78 NE7       30.13R                  
KISSIMMEE      FAIR      72  65  78 NE6       30.13S                  
WINTER HAVEN   FAIR      73  65  75 NE9       30.13R                  
LAKELAND       CLEAR     72  64  78 NE6       30.12                   
BARTOW         FAIR      72  66  83 NE7       30.11R                  
SEBRING        FAIR      70  65  84 N9        30.10R                  
OKEECHOBEE       N/A     68  64  88 N5        30.08R                  

$$
FLZ041-047-054-059-064-141-147-211100-
EAST CENTRAL FLORIDA
  
CITY           SKY/WX    TMP DP  RH WIND       PRES   REMARKS
DAYTONA BEACH  FAIR      77  63  61 E10       30.14S                  
DELAND         FAIR      68  63  83 N3        30.14S                  
JFK SPACE CTR  MOCLDY    77  68  74 E12       30.12S                  
CAPE CANAVERAL FAIR      78  67  69 E10       30.11R                  
PATRICK AFB    FAIR      79  64  59 E14       30.11R                  
MELBOURNE      FAIR      79  64  60 E14       30.10R                  
VERO BEACH     FAIR      80  67  64 E15G23    30.09R                  
FT PIERCE      MOCLDY    79  67  66 E12G18    30.08R                  
STUART         FAIR      79  64  61 E15G24    30.09R                  

STATION/POSITION SKY/WX   TEMP    WIND        PRES    WAVE   SWELL
                          AIR SEA DIR/SP/G            HT/PER HT/PER
                          (F)     (DEG/KT/KT) (MB)    (FT/S) (FT/S)
28.5N   80.2W              80 83   80/ 17/ 25 1020.3R  10/14   8/14
28.9N   78.5W              79 81   60/ 19/ 23 1021.2R  11/13   8/13
TRIDENT PIER               78 82   70/  9/ 15 1021.3R
28.4N   80.5W                 81                N/A     5/14   2/14
27.5N   80.2W                 82                N/A     8/12   5/12

$$
FLZ050-056-061-142-242-148-248-149-249-151-251-155-255-
160-260-211100-
WEST CENTRAL FLORIDA
  
CITY           SKY/WX    TMP DP  RH WIND       PRES   REMARKS
CRYSTAL RIVER  FAIR      68  64  88 CALM      30.14R                  
INVERNESS      FAIR      68  68 100 NE3       30.15R                  
BROOKSVILLE    FAIR      68  64  87 NE5       30.14R                  
CLEARWATER AIR FAIR      72  64  78 NE5       30.12R                  
ST PETE CLEARW FAIR      76  66  71 E13       30.11R                  
TAMPA INTL     FAIR      74  65  73 NE7       30.12R                  
TAMPA EXEC     FAIR      70  66  88 NE5       30.12S                  
PLANT CITY     FAIR      72  66  83 NE6       30.14R                  
MACDILL AFB    FAIR      72  66  81 E8        30.10R                  
PETER O KNIGHT CLOUDY    72  68  88 E10       30.11S                  
ST PETERSBURG  FAIR      76  69  79 NE17      30.09R                  
SARASOTA       FAIR      74  67  78 E9        30.07R                  
VENICE         FAIR      72  68  88 NE13      30.08R                  

STATION/POSITION SKY/WX   TEMP    WIND        PRES    WAVE   SWELL
                          AIR SEA DIR/SP/G            HT/PER HT/PER
                          (F)     (DEG/KT/KT) (MB)    (FT/S) (FT/S)
27.3N   84.2W                 84                N/A     8/ 7
CLEARWATER BEACH           73 84   40/  6/  8 1019.7R
MIDDLE TAMPA BAY           74      80/ 13/ 15 1019.3R
VENICE                     72 84   40/  9/ 11 1018.4R

$$
FLZ066-069-070-075>078-162-262-165-265-211100-
SOUTHWEST FLORIDA AND KEYS
  
CITY           SKY/WX    TMP DP  RH WIND       PRES   REMARKS
PUNTA GORDA    FAIR      70  69  97 NE9       30.09R                  
FT MYERS       FAIR      73  67  81 NE8       30.05R                  
SOUTHWEST INTL FAIR      72  68  87 NE7       30.06R                  
NAPLES         FAIR      76  71  85 NE12      30.03R                  
MARCO ISLAND   FAIR      74  70  87 NE10      30.04R                  
IMMOKALEE      FAIR      73  70  88 NE7       30.03R                  
MARATHON       LGT RAIN  82  75  79 E18G26    29.97R                  
KEY WEST NAS   CLOUDY    81  75  82 NE16G25   29.98R                  
KEY WEST INTL  MOCLDY    80  75  84 E12G21    29.98R                  

STATION/POSITION SKY/WX   TEMP    WIND        PRES    WAVE   SWELL
                          AIR SEA DIR/SP/G            HT/PER HT/PER
                          (F)     (DEG/KT/KT) (MB)    (FT/S) (FT/S)
NAPLES                        83   50/  6/ 10 1016.8R
26.0N   85.6W              83 86   80/ 21/ 27 1016.2R  10/ 9
DRY TORTUGAS               82      80/ 28/ 31 1014.5F
SAND KEY                   81      80/ 20/ 23 1013.2R
SOMBRERO KEY               81      70/ 22/ 30 1014.5R
LONG KEY                   82                 1014.2

$$
FLZ067-068-071>074-168-172>174-211100-
SOUTHEAST FLORIDA 
  
CITY           SKY/WX    TMP DP  RH WIND       PRES   REMARKS
W PALM BEACH   MOCLDY    80  69  69 E18       30.06R                  
FT LAUDER-EXEC FAIR      80  71  74 E13G22    30.02S                  
FT LAUDERDALE  MOCLDY    80  72  76 E14G23    30.01S                  
POMPANO BEACH  MOCLDY    81  71  71 NE15      30.03R                  
PEMBROKE PINES MOCLDY    81  71  71 NE17G24   30.03S                  
OPA LOCKA      MOCLDY    80  72  76 E15       30.02S                  
MIAMI          MOCLDY    81  71  71 NE12G20   30.02R                  
WEST KENDALL   RAIN      80  74  81 E14       30.01R                  
HOMESTEAD      MOCLDY    79  74  86 NE13      29.99R                  

STATION/POSITION SKY/WX   TEMP    WIND        PRES    WAVE   SWELL
                          AIR SEA DIR/SP/G            HT/PER HT/PER
                          (F)     (DEG/KT/KT) (MB)    (FT/S) (FT/S)
VIRGINIA KEY               80 83   50/ 12/ 17 1015.6R
LAKE WORTH                 80 82   60/ 20/ 24 1018.6R
FOWEY ROCKS                82 83   70/ 24/ 27 1016.1R
SETTLEMENT POINT           79      60/ 18/ 21 1017.6R

$$